Back to catalog

CZ-4B DEB

AliveSSO
NORAD 37581·DEBRIS·🇨🇳 China

Launched May 10, 1999 from Taiyuan Satellite Launch Center

Loading…

Next Passes (next 24 hours)

TLE

FreshSource: Space-Track

Epoch: Sep 12, 2026, 02:00 UTC

1 37581U 99025EKE 26255.08394997  .00000563  00000-0  23256-3 0  9993
2 37581  98.6954 301.9193 0103895 323.1007  65.7835 14.27747395255897

Track CZ-4B DEB in real time with AllMySat

Download on the App Store